Ashland, WI

2:30 AM CDT on September 28, 2016 (GMT -0500)
Kennedy Memorial

Weather History for KASX - June, 2013

Change the Weather History Date:

Wednesday, June 12, 2013

  Actual Average Record
Temperature  
Mean Temperature 64 °F -  
Max Temperature 81 °F 73 °F 93 °F (1956)
Min Temperature 48 °F 49 °F 30 °F (1962)
Degree Days  
Heating Degree Days 1    
Growing Degree Days 14 (Base 50)    
Moisture  
Dew Point 51 °F    
Average Humidity 68    
Maximum Humidity 97    
Minimum Humidity 31    
Precipitation  
Precipitation 0.00 in - - ()
Sea Level Pressure  
Sea Level Pressure 29.87 in    
Wind  
Wind Speed 4 mph (NNW)    
Max Wind Speed 14 mph    
Max Gust Speed -    
Visibility 10 miles    
Events      
Averages and records for this station are not official NWS values.
T = Trace of Precipitation, MM = Missing Value Source: NWS Daily Summary

Daily Weather History Graph

Daily Weather History Graph

Search for Another Location

Airport or City:

Trip Planner

Search our weather history database for the weather conditions in past years. The results will help you decide how hot, cold, wet, or windy it might be!

Date:

Astronomy

Jun. 12, 2013 Rise Set
Actual Time 5:10 AM CDT 8:57 PM CDT
Civil Twilight 4:31 AM CDT 9:36 PM CDT
Nautical Twilight 3:38 AM CDT 10:29 PM CDT
Astronomical Twilight 2:23 AM CDT 11:45 PM CDT
Moon 9:00 AM CDT (6/12) 11:20 PM CDT (6/12)
Length of Visible Light 17h 05m
Length of Day
15h 47m
Waxing Crescent, 14% of the Moon is Illuminated
Jun 12
Waxing Crescent
Jun 16
First Quarter
Jun 23
Full
Jun 29
Last Quarter
Jul 8
New

Hourly Weather History & Observations

Time (CDT) Temp. Dew Point Humidity Pressure Visibility Wind Dir Wind Speed Gust Speed Precip Events Conditions
12:53 AM 53.1 °F 51.1 °F 93% 29.91 in 10.0 mi West 4.6 mph - N/A   Clear
1:53 AM 50.0 °F 48.9 °F 96% 29.89 in 10.0 mi Calm Calm - N/A   Clear
2:53 AM 51.1 °F 48.9 °F 92% 29.90 in 10.0 mi SSW 5.8 mph - N/A   Clear
3:53 AM 50.0 °F 48.0 °F 93% 29.90 in 10.0 mi WSW 4.6 mph - N/A   Clear
4:53 AM 50.0 °F 48.0 °F 93% 29.89 in 10.0 mi Calm Calm - N/A   Clear
5:53 AM 48.9 °F 48.0 °F 97% 29.88 in 10.0 mi Calm Calm - N/A   Clear
6:53 AM 57.9 °F 53.1 °F 84% 29.88 in 10.0 mi Calm Calm - N/A   Clear
7:53 AM 64.0 °F 53.1 °F 67% 29.89 in 10.0 mi Calm Calm - N/A   Clear
8:53 AM 70.0 °F 51.1 °F 51% 29.87 in 10.0 mi Calm Calm - N/A   Clear
9:53 AM 75.0 °F 52.0 °F 44% 29.87 in 10.0 mi Calm Calm - N/A   Clear
10:53 AM 78.1 °F 53.1 °F 42% 29.87 in 10.0 mi West 4.6 mph - N/A   Clear
11:53 AM 79.0 °F 48.0 °F 34% 29.86 in 10.0 mi Calm Calm - N/A   Clear
12:53 PM 80.1 °F 46.9 °F 31% 29.84 in 10.0 mi Variable 4.6 mph - N/A   Clear
1:53 PM 79.0 °F 54.0 °F 42% 29.84 in 10.0 mi NNE 13.8 mph - N/A   Clear
2:53 PM 77.0 °F 50.0 °F 39% 29.83 in 10.0 mi ENE 11.5 mph - N/A   Clear
3:53 PM 77.0 °F 53.1 °F 43% 29.82 in 10.0 mi East 4.6 mph - N/A   Clear
4:53 PM 70.0 °F 57.0 °F 63% 29.83 in 10.0 mi North 10.4 mph - N/A   Clear
5:53 PM 66.9 °F 54.0 °F 63% 29.82 in 10.0 mi North 10.4 mph - N/A   Clear
6:53 PM 64.0 °F 53.1 °F 67% 29.83 in 10.0 mi North 8.1 mph - N/A   Clear
7:53 PM 63.0 °F 54.0 °F 72% 29.86 in 10.0 mi North 3.5 mph - N/A   Overcast
8:53 PM 61.0 °F 52.0 °F 72% 29.87 in 10.0 mi North 4.6 mph - N/A   Mostly Cloudy
9:53 PM 54.0 °F 51.1 °F 90% 29.89 in 10.0 mi Calm Calm - N/A   Mostly Cloudy
10:53 PM 55.0 °F 52.0 °F 89% 29.89 in 10.0 mi Calm Calm - N/A   Clear
11:53 PM 57.0 °F 50.0 °F 77% 29.90 in 10.0 mi NNW 5.8 mph - N/A   Partly Cloudy